ICE201 EKCH-BIKF

Flight info

Callsign ICE201
Flight time N/A
Altitude 36000
Route GOLGA DCT AMSEV DCT TUKMU DCT ZOL DCT GUNPA/M076F360 DCT 63N010W DCT ING DCT NASBU DCT KFV
Aircraft B738/M-SDE2E3FGHIRWXY/LB1

Departure

Time 2026-04-30 18:14
Airport Copenhagen Kastrup Airport (EKCH)

Arrival

Time N/A
Airport Keflavik International Airport (BIKF)
Time Latitude Longitude Altitude Speed Heading
2026-04-30 17:48 55.62880 12.63933 16 ft 0 kts 12°
2026-04-30 18:02 55.62840 12.63919 16 ft 2 kts 12°
2026-04-30 18:03 55.62832 12.63916 16 ft 0 kts 11°
2026-04-30 18:07 55.62833 12.63917 16 ft 1 kts 12°
2026-04-30 18:08 55.62690 12.63859 16 ft 23 kts 213°
2026-04-30 18:09 55.62036 12.64460 16 ft 25 kts 169°
2026-04-30 18:10 55.61432 12.64285 17 ft 27 kts 214°
2026-04-30 18:11 55.60787 12.63604 16 ft 17 kts 153°
2026-04-30 18:11 55.60717 12.63931 16 ft 17 kts 39°
2026-04-30 18:12 55.60754 12.63991 16 ft 0 kts 41°
2026-04-30 18:13 55.60755 12.63992 16 ft 0 kts 41°
2026-04-30 18:13 55.61760 12.65550 39 ft 160 kts 40°
2026-04-30 18:14 55.63850 12.68828 1818 ft 179 kts 39°
2026-04-30 18:15 55.67441 12.72597 2894 ft 242 kts 10°
2026-04-30 18:15 55.72062 12.69604 3007 ft 251 kts 308°
2026-04-30 18:16 55.74006 12.64644 3208 ft 244 kts 315°
2026-04-30 18:16 55.76603 12.60530 3561 ft 261 kts 320°
2026-04-30 18:17 55.78001 12.58309 4162 ft 280 kts 317°
2026-04-30 18:17 55.79433 12.55894 4880 ft 292 kts 317°
2026-04-30 18:17 55.82315 12.51288 7467 ft 273 kts 316°
2026-04-30 18:18 55.83719 12.49068 8484 ft 272 kts 316°
2026-04-30 18:18 55.85131 12.46833 9369 ft 275 kts 315°
2026-04-30 18:18 55.86553 12.44582 10168 ft 280 kts 315°
2026-04-30 18:18 55.88033 12.42238 10848 ft 290 kts 314°
2026-04-30 18:19 55.89600 12.39738 11051 ft 317 kts 315°
2026-04-30 18:19 55.91291 12.37052 11528 ft 332 kts 315°
2026-04-30 18:19 55.93044 12.34273 12103 ft 343 kts 314°
2026-04-30 18:19 55.94843 12.31420 12882 ft 347 kts 314°
2026-04-30 18:20 55.96638 12.28569 13583 ft 352 kts 314°
2026-04-30 18:20 55.98474 12.25652 14363 ft 355 kts 314°
2026-04-30 18:20 56.00323 12.22708 15072 ft 358 kts 314°
2026-04-30 18:20 56.02167 12.19770 15787 ft 361 kts 314°
2026-04-30 18:21 56.04053 12.16761 16478 ft 364 kts 314°
2026-04-30 18:21 56.05958 12.13716 17150 ft 367 kts 314°
2026-04-30 18:21 56.07858 12.10674 17797 ft 370 kts 314°
2026-04-30 18:21 56.09779 12.07597 18428 ft 373 kts 314°
2026-04-30 18:22 56.11713 12.04493 19037 ft 376 kts 314°
2026-04-30 18:22 56.15654 11.98151 19421 ft 381 kts 314°
2026-04-30 18:22 56.17617 11.94991 19423 ft 378 kts 314°
2026-04-30 18:23 56.19550 11.91873 19428 ft 377 kts 314°
2026-04-30 18:23 56.21516 11.88695 19426 ft 377 kts 314°
2026-04-30 18:23 56.23444 11.85575 19425 ft 378 kts 314°
2026-04-30 18:23 56.25394 11.82414 19425 ft 378 kts 314°
2026-04-30 18:24 56.29292 11.76080 19426 ft 378 kts 314°
2026-04-30 18:24 56.31249 11.72893 19427 ft 378 kts 314°
2026-04-30 18:24 56.33193 11.69700 19425 ft 377 kts 312°
2026-04-30 18:25 56.34992 11.66337 19325 ft 376 kts 308°
2026-04-30 18:25 56.38453 11.59375 19411 ft 374 kts 308°
2026-04-30 18:25 56.40200 11.55902 19380 ft 376 kts 308°
2026-04-30 18:26 56.43709 11.48912 19226 ft 372 kts 308°
2026-04-30 18:26 56.45443 11.45456 19342 ft 371 kts 308°
2026-04-30 18:26 56.47156 11.42028 19660 ft 372 kts 308°
2026-04-30 18:27 56.50597 11.35120 21243 ft 364 kts 308°
2026-04-30 18:27 56.52293 11.31718 21762 ft 369 kts 307°
2026-04-30 18:28 56.55759 11.24759 22835 ft 374 kts 307°
2026-04-30 18:28 56.57504 11.21246 23310 ft 378 kts 307°
2026-04-30 18:28 56.61018 11.14157 24297 ft 383 kts 307°
2026-04-30 18:29 56.62803 11.10547 24779 ft 385 kts 307°
2026-04-30 18:29 56.68184 10.99628 26163 ft 390 kts 307°
2026-04-30 18:30 56.71201 10.93494 27057 ft 388 kts 307°
2026-04-30 18:30 56.75345 10.85049 28345 ft 382 kts 307°
2026-04-30 18:31 56.77099 10.81469 28902 ft 379 kts 307°
2026-04-30 18:31 56.80573 10.74360 29921 ft 374 kts 307°
2026-04-30 18:32 56.83939 10.67265 30852 ft 366 kts 299°